GFSGBSN_850_dewp_057.txt.gz
Dewpoint
1 1 1 0 1 -0 -3 0 0 1 1 1 1 -3 -2 -5 -6 -6 -8 -10 -11 -14 -11 -10 -14 -16 -16 -3 -3 -9 -11 -16 0 0 -0 -3 -4 -6 -6 -10 -10 -9 -9 -11 -11 -12 -9
0 1 -0 1 1 0 1 1 1 0 -0 -2 -5 1 -1 -4 -4 -5 -9 -11 -12 -9 -9 -12 -14 -13 -1 -2 -6 -8 -5 -6 -8 1 -0 -3 -4 -6 -9 -11 -11 -11 -8 -9 -10 -10 -10
0 0 0 0 1 0 0 1 1 1 0 -6 -5 -4 -4 -3 -4 -4 -7 -11 -8 -10 -9 -11 -12 -9 -1 -7 -8 -6 -1 -1 -12 -13 -5 -0 -3 -7 -8 -8 -8 -9 -7 -8 -9 -9 -9
0 -0 -0 0 -0 0 0 -0 -1 -0 0 -0 -3 -3 -4 -5 -4 -4 -7 -10 -8 -9 -9 -10 -9 2 -2 -8 -9 -7 -5 -0 -2 -10 -8 -4 -3 -2 -6 -7 -7 -6 -7 -5 -8 -9 -9
-0 -0 -0 -0 -0 -1 -0 -0 -1 -0 -0 -1 -2 -4 -7 -6 -3 -5 -7 -8 -6 -7 -7 -5 1 2 -3 -7 -10 -10 -5 -2 -2 -9 -10 -6 -5 -4 -4 -4 -3 -4 -3 -4 -5 -8 -8
-1 -1 -1 -1 -1 -1 -1 -0 -1 -1 -0 -1 -1 -5 -8 -7 -4 -4 -6 -2 -1 -1 2 3 1 3 -1 -11 -6 -2 -1 -3 2 -6 -9 -10 -5 -4 -4 -4 -1 -2 -3 -4 -4 -7 -8
-1 -1 -1 -1 -1 -1 -1 -0 -1 -1 -1 -1 -2 -6 -7 -6 -3 -4 -2 0 -2 1 -2 -4 -5 -2 -5 -3 -4 -3 2 2 1 -2 -8 -9 -5 -4 -3 -3 -5 -5 -4 -4 -6 -9 -8
-2 -1 -1 -1 -1 -2 -2 -1 -1 -2 -0 -1 -1 -8 -8 -7 -3 -3 2 0 1 1 1 -2 -2 -2 -3 -4 -3 -4 0 -1 2 2 -6 -5 -4 -8 -8 -7 -6 -6 -4 -4 -6 -9 -7
-2 -2 -2 -2 -2 -1 -1 -2 -1 -1 -2 -1 -2 -7 -9 -8 -3 0 1 1 1 2 0 -3 -4 -3 -2 -2 -4 -6 -3 -3 3 3 2 -2 -6 -5 -5 -5 -5 -4 -3 -4 -4 -7 -6
-2 -2 -2 -2 -3 -1 -2 -2 -2 -3 -2 -3 -2 -3 -8 -7 0 1 0 1 2 2 2 -8 -7 -3 -2 -3 -4 -6 -7 -2 -2 2 1 1 -7 -4 -3 -3 -3 -1 -5 -5 -5 -4 -2
-2 -3 -2 -3 -2 -3 -2 -2 -3 -2 -2 -2 -2 -2 -8 -5 0 1 0 2 2 2 1 -14 -6 -4 -3 -4 -6 -6 -8 -9 -2 -3 -2 -1 -4 -5 -3 -3 -4 -3 -5 -5 -4 -3 -3
-1 -3 -3 -3 -3 -2 -3 -2 -3 -2 -3 -3 -2 -2 -6 -3 0 1 1 3 3 5 -2 -10 -9 -7 -7 -6 -5 -6 -3 -6 -8 -5 -6 -3 -4 -4 -3 -5 -6 -6 -5 -4 -3 -2 1
-4 -2 -3 -3 -4 -4 -4 -2 -2 -2 -2 -3 -3 -2 -5 -1 -1 2 2 2 2 -1 -10 -6 -6 -7 -7 -6 -5 -4 -2 -3 -5 -2 -3 -7 -3 -4 -5 -4 -6 -5 -3 1 2 2 2
-4 -5 -4 -3 -5 -3 -4 -3 -2 -2 -3 -3 -3 -3 -3 -2 -2 1 2 -0 0 -9 -8 -7 -6 -8 -7 -6 -4 -5 -2 -1 -5 -4 -2 -4 0 -3 -4 -4 -4 -4 -2 0 3 5 1
-5 -5 -6 -6 -5 -3 -2 -4 -4 -3 -4 -3 -3 -3 -3 -2 -1 -0 1 2 -7 -9 -9 -7 -9 -10 -9 -6 -5 -5 -4 -0 -4 -6 -3 -5 -8 -8 -5 -4 -4 -2 -1 -5 -0 1 4
-3 -3 -5 -6 -4 -3 -4 -4 -5 -4 -3 -3 -4 -2 -3 -2 -1 0 1 -1 -7 -8 -6 -8 -8 -7 -5 -4 -4 -5 -2 -0 0 -3 -7 -5 -4 -10 -6 -4 -4 -3 -4 -1 -0 4 5
-4 -5 -6 -6 -4 -5 -6 -4 -4 -3 -3 -2 -3 -1 -4 -1 -0 1 2 -3 -7 -9 -6 -6 -7 -4 -5 -3 -4 -4 -2 -1 -1 -1 -3 -5 -2 -3 -4 -1 -2 -2 -0 0 -1 0 3
-5 -6 -5 -6 -6 -6 -5 -3 -6 -6 -4 -2 -3 -1 -3 0 1 -1 1 -4 -7 -7 -8 -7 -6 -4 -3 -4 -3 -4 -4 -4 -2 -1 4 -2 -1 -0 1 -4 -4 -3 -1 1 2 4 1
-4 -6 -6 -6 -7 -6 -3 -4 -6 -6 -3 -2 -4 -3 -4 0 1 0 -3 -5 -6 -6 -7 -6 -6 -6 -6 -4 -3 -4 -5 -5 -5 -2 2 2 -0 1 1 -1 -2 -2 -2 -1 0 1 5
-5 -5 -6 -6 -5 -5 -5 -6 -5 -5 -3 -2 -2 0 -4 -0 -1 -2 -3 -2 -3 -5 -6 -8 -7 -7 -4 -4 -5 -3 -4 -6 -6 -5 -3 2 3 -1 -0 -0 -3 0 0 -1 0 4 3
-6 -6 -6 -5 -5 -6 -6 -6 -6 -5 -3 -2 -2 -2 -3 -1 -3 -2 -3 -1 -4 -3 -6 -7 -6 -6 -5 -3 -4 -3 -3 -5 -6 -6 -4 3 5 3 -3 -1 -1 -1 0 -0 0 0 2
-7 -6 -5 -4 -5 -6 -6 -5 -5 -6 -4 -3 -2 -3 -5 -5 -5 -5 -4 -1 -2 -3 -4 -5 -5 -6 -5 -4 -4 -2 -3 -2 -2 -5 -4 2 5 2 3 -2 -2 -0 -1 -2 -3 -3 -3
-7 -7 -6 -7 -6 -5 -6 -5 -5 -5 -4 -2 -3 -3 -2 -4 -5 -3 -3 -6 -6 -7 -4 -3 -5 -5 -3 -4 -4 -2 -2 -0 -2 -2 -1 -1 0 4 4 -0 -1 -0 -1 -2 -2 -3 -2
-7 -7 -7 -6 -7 -5 -6 -6 -5 -5 -4 -4 -2 -3 -2 -2 -5 -5 -7 -4 -5 -6 -6 -5 -4 -2 -3 -1 -1 -3 -3 -3 -3 -3 -3 -1 -0 0 4 2 6 -3 -6 -6 -4 -5 -6
-6 -6 -6 -6 -6 -7 -5 -5 -5 -6 -5 -3 -3 -2 -3 -1 -7 -7 -5 -5 -8 -6 -4 -4 -2 1 2 1 0 -0 0 0 1 -2 -2 -2 -0 2 2 1 -2 -6 -7 -7 -6 -8 -9
-6 -6 -6 -6 -7 -7 -6 -6 -5 -6 -6 -3 -4 -2 -2 -3 -4 -7 -8 -9 -5 -4 -4 -3 -1 1 2 2 4 2 1 -1 -0 -1 -3 -3 -2 2 2 2 1 -5 -6 -4 -6 -5 -4
-3 -3 -3 -4 -6 -7 -7 -7 -6 -6 -6 -4 -3 -3 -2 -2 -5 -5 -2 -3 -5 -4 -3 -1 0 1 1 3 3 3 2 -2 1 2 1 1 1 2 1 1 -3 -7 -6 -6 0 1 -1
-2 -2 -2 -2 -3 -6 -7 -7 -7 -7 -6 -5 -3 -2 -2 -3 -5 -6 -6 -5 -3 -2 1 0 2 2 2 4 1 0 1 -1 -2 0 -0 -0 2 2 1 2 2 -5 -5 -2 3 0 0
-1 -1 -1 -2 -2 -4 -7 -6 -6 -6 -5 -5 -3 -4 -3 -2 -5 -3 -4 -5 -2 -3 -2 1 -0 2 -1 1 -1 1 1 0 -2 -0 1 1 -1 -0 -2 -1 -2 -3 1 2 1 1 1

GFSGBSN_850_dewp_060.txt.gz
Dewpoint
-2 -1 -1 -1 0 0 0 2 1 1 0 -1 -3 -9 -8 -7 -8 -12 -13 -12 -12 -13 -7 -5 -8 -10 -15 -5 -4 -5 -4 -8 -8 1 -1 -2 -2 -4 -3 -4 -7 -8 -9 -9 -9 -10 -11
-2 -1 -2 -0 0 -0 -2 0 1 1 0 -1 -2 -9 -9 -11 -12 -14 -14 -12 -13 -11 -8 -8 -7 -7 0 -1 -9 -6 -6 -8 -12 -0 1 -1 -4 -5 -5 -6 -7 -9 -10 -10 -10 -10 -10
-0 -0 -0 0 0 -0 -0 -0 -1 -1 -1 -0 -0 -2 -5 -8 -13 -17 -16 -15 -14 -10 -9 -8 -7 -5 1 -6 -9 -8 -7 -4 -5 -13 -13 -7 -3 -2 -5 -5 -8 -9 -9 -10 -9 -8 -9
1 0 1 0 -0 0 -0 -1 -1 -2 0 -0 -1 -2 -6 -8 -14 -17 -14 -18 -12 -7 -6 -6 -6 -0 1 -10 -7 -8 -8 -8 -6 -3 -8 -15 -8 -3 -2 -4 -6 -7 -6 -5 -8 -8 -9
-0 -0 -1 -1 -0 -1 -1 -1 -1 -1 -1 -0 -1 -3 -8 -11 -15 -15 -16 -17 -7 -1 -0 -1 -1 3 -0 -6 -7 -7 -9 -4 -3 -1 -5 -9 -11 -5 -4 -1 -1 -4 -3 -3 -5 -8 -8
0 -0 -1 -1 -1 -0 -0 -1 -0 -1 -2 -0 -1 -2 -7 -12 -14 -13 -13 -2 -3 -1 2 3 4 1 1 -6 -6 -4 -2 -4 -2 0 -3 -3 -9 -6 -3 -2 1 -2 -2 -3 -4 -6 -6
-2 -2 -0 -0 -1 -1 -2 -2 -3 -0 -1 -1 -0 -2 -5 -10 -13 -12 -2 1 -2 2 1 -1 -4 -0 -3 -5 -5 -5 0 -2 1 3 0 -3 -7 -7 -2 -3 -3 -3 -4 -3 -4 -6 -6
-1 -1 -2 -2 -1 -1 -1 -1 -2 -1 -1 -2 -2 -2 -7 -12 -13 -8 1 1 -1 1 1 -1 -2 -3 -4 -4 -5 -5 -1 0 2 6 4 3 -3 -11 -9 -4 -3 -3 -2 -2 -4 -7 -7
-2 -3 -3 -3 -2 -3 -3 -1 -1 -2 -2 -3 -2 -3 -5 -12 -13 1 1 0 -0 1 1 -2 -6 -6 -5 -4 -4 -6 -7 0 -1 2 6 5 -2 -7 -7 -8 -5 -4 -2 -3 -4 -5 -6
-3 -1 -2 -2 -2 -2 -3 -3 -2 -2 -3 -3 -2 -2 -3 -11 -3 1 0 -0 1 2 2 -1 -5 -4 -2 -4 -4 -6 -7 -4 -3 2 4 6 3 -1 0 -4 -5 -2 -5 -6 -4 -3 -2
-2 -4 -2 -3 -4 -2 -2 -3 -3 -2 -3 -2 -2 -3 -2 -8 -8 -2 1 -0 1 2 4 -12 -6 -5 -4 -5 -5 -8 -8 -6 -3 0 5 7 3 3 1 -1 -3 -2 -3 -3 -3 -2 -1
-2 -3 -4 -1 -2 -3 -3 -4 -4 -3 -2 -3 -3 -3 -3 -8 0 1 1 2 3 5 5 -10 -9 -7 -8 -7 -5 -7 -5 -8 -10 -7 1 1 -0 1 -2 -6 -4 -5 -3 -2 -2 -1 2
-4 -3 -3 -4 -3 -3 -4 -4 -4 -3 -2 -3 -3 -3 -3 -2 -1 -1 -0 2 5 4 -11 -9 -7 -9 -9 -9 -7 -5 -2 -3 -6 -4 -3 -2 -2 -5 -2 -0 -4 -3 -2 2 3 4 5
-4 -4 -3 -3 -6 -4 -5 -4 -3 -4 -2 -2 -3 -4 -4 -2 -2 -1 0 2 3 -7 -8 -10 -9 -9 -10 -8 -5 -4 -2 -2 -5 -6 -3 3 3 -4 -4 -1 -2 -2 -1 2 6 7 3
-4 -4 -5 -5 -5 -6 -6 -4 -2 -3 -5 -4 -4 -3 -2 -2 -3 -1 0 4 -4 -6 -11 -10 -9 -12 -14 -9 -7 -5 -4 -1 -3 -5 -1 1 0 -5 -3 -2 -3 -0 3 -2 2 2 5
-4 -4 -4 -3 -4 -6 -5 -4 -3 -4 -5 -4 -2 -2 -4 -3 -2 -1 1 -0 -4 -8 -11 -7 -8 -14 -8 -8 -6 -6 0 1 0 -5 -5 -4 1 -4 -6 -4 -3 -1 -2 2 1 5 7
-4 -4 -4 -5 -6 -5 -5 -4 -5 -5 -4 -3 -2 -2 -5 -3 -1 -1 1 -2 -5 -7 -10 -7 -6 -10 -7 -7 -6 -4 -4 2 -0 -0 -0 -4 -2 -1 -4 -4 -1 -1 0 2 2 1 6
-5 -5 -5 -5 -6 -5 -5 -5 -6 -3 -5 -3 -2 -1 -4 -1 0 -1 1 -2 -5 -7 -9 -9 -7 -6 -5 -5 -5 -5 -4 -4 -4 -2 3 2 -1 1 1 -2 -5 -3 -1 -0 5 6 3
-5 -5 -4 -4 -5 -5 -6 -7 -5 -3 -4 -2 -1 -4 -6 -1 2 -0 -4 -4 -6 -6 -8 -8 -7 -8 -8 -7 -5 -6 -5 -6 -5 -4 1 0 1 3 1 1 -0 -1 -1 -1 1 5 10
-6 -5 -6 -5 -6 -6 -6 -6 -5 -4 -4 -3 -2 -1 -6 -1 -2 -2 -1 -3 -4 -8 -8 -7 -8 -8 -8 -6 -7 -5 -5 -6 -6 -6 -3 -3 4 4 3 5 5 5 0 2 3 8 9
-6 -6 -6 -7 -6 -6 -5 -4 -5 -5 -4 -3 -2 -2 -5 -0 -2 -3 -3 0 -2 -5 -6 -8 -6 -7 -8 -5 -6 -6 -7 -7 -7 -5 -2 2 7 4 2 2 1 1 3 1 3 6 8
-7 -7 -7 -7 -6 -5 -5 -6 -7 -8 -6 -3 -2 -3 -7 -7 -4 -2 -4 -3 -3 -2 -5 -5 -6 -8 -7 -7 -6 -5 -5 -0 -3 -3 -3 3 5 4 5 2 -1 -1 1 6 5 -1 -1
-7 -7 -8 -7 -7 -7 -7 -5 -5 -5 -4 -2 -2 -3 -1 -3 -3 -4 -1 -4 -7 -7 -5 -2 -4 -4 -7 -3 -1 -1 -2 1 0 1 -0 1 3 6 5 2 1 2 -1 2 2 -3 -3
-7 -7 -8 -7 -7 -7 -8 -7 -6 -5 -3 -3 -3 -2 -2 -2 -6 -5 -6 -3 -2 -7 -7 -9 -2 -1 0 1 -1 -2 -4 -4 -3 -3 -3 -1 -1 3 5 6 6 -2 -6 -5 -3 -3 -4
-7 -6 -7 -6 -6 -6 -7 -8 -6 -5 -4 -3 -3 -2 -2 -2 -6 -6 -7 -5 -6 -4 -4 -5 -4 0 0 2 0 -2 -2 -1 -2 -3 -3 -2 -1 4 7 5 4 1 -5 -6 -5 -4 -6
-8 -8 -7 -7 -7 -6 -6 -7 -8 -6 -6 -3 -3 -2 -3 -2 -4 -8 -6 -5 -2 -2 -4 -5 -2 1 1 2 1 0 -1 -3 -3 -2 -4 -3 -0 2 3 4 6 -2 -4 -5 -7 -3 -5
-4 -4 -4 -3 -3 -3 -5 -6 -8 -6 -5 -4 -3 -3 -2 -2 -4 -6 -2 -1 -1 -1 -2 -4 0 1 1 2 3 1 -0 -3 1 1 1 1 2 3 3 3 -0 -7 -7 -6 -1 4 -0
-5 -4 -3 -2 -2 -2 -3 -5 -7 -7 -6 -4 -4 -3 -2 -2 -4 -6 -6 -4 -4 -1 2 -0 1 1 2 2 1 -1 1 0 1 1 2 1 3 3 2 2 2 -7 -5 -3 4 3 2
-3 -3 -3 -2 -1 -2 -2 -3 -6 -7 -7 -5 -4 -4 -3 -2 -5 -4 -4 -5 -5 -3 -0 1 -1 1 1 1 -0 0 3 3 0 1 3 5 -1 0 -1 -1 -2 -3 1 2 1 2 1

GFSGBSN_850_dewp_063.txt.gz
Dewpoint
-6 -4 -4 -5 -4 -1 -2 -3 -1 0 1 0 -1 -3 -6 -9 -12 -13 -17 -20 -21 -22 -20 -15 -13 -9 -7 -1 -8 -17 -6 -5 -5 -6 1 -1 -5 -5 -1 -2 -2 -3 -5 -7 -8 -8 -8
-2 1 -0 -0 -0 -0 -1 -1 -2 -2 -2 -1 -1 -2 -4 -10 -13 -16 -21 -21 -22 -20 -15 -8 -8 -6 1 2 -15 -7 -7 -5 -6 -10 -4 -1 -3 -3 -3 -4 -3 -4 -5 -6 -8 -9 -10
1 0 0 1 0 -0 -0 -0 -2 -2 -3 -1 0 -1 -4 -10 -17 -21 -22 -24 -23 -22 -8 -3 -5 -3 3 -10 -15 -13 -8 -7 -7 -4 -12 -10 -10 -10 -4 -1 -4 -5 -5 -7 -8 -10 -10
-0 0 1 -0 -1 -0 -1 -1 -1 -1 -2 -2 -0 -1 -3 -9 -18 -19 -21 -22 -25 -22 -4 0 0 1 2 -10 -5 -7 -10 -8 -7 -6 -6 -7 -10 -11 -5 -3 -2 -2 -4 -4 -7 -8 -8
0 0 0 -1 -1 -1 -0 -0 -1 -1 0 -2 -2 -0 -2 -9 -21 -19 -21 -11 -2 -3 -4 -0 1 3 4 -2 -5 -6 -6 -10 -6 -5 -3 -4 -8 -10 -7 -2 1 -1 -0 -2 -4 -7 -7
-1 -1 -1 -0 -0 -0 -1 -1 -2 -2 -1 -0 -1 -2 -3 -8 -19 -19 -18 -0 -4 -4 0 2 3 5 2 -3 -5 -6 -5 -2 -6 -2 -0 -2 -5 -8 -5 -1 3 2 -1 -3 -3 -5 -6
-2 -2 -2 -2 -1 -1 -1 -1 -1 -1 -3 -1 -1 -2 -4 -13 -18 -15 -1 0 -1 -1 -1 -0 2 3 -1 -2 -5 -6 -4 -2 -1 2 3 -1 -3 -4 -7 -3 -2 -1 -1 -0 -3 -4 -2
-1 -2 -3 -3 -2 -3 -3 -2 -2 -0 -1 -2 -2 -3 -5 -16 -18 -2 1 1 1 1 1 -0 -2 -2 -4 -6 -4 -5 -6 0 2 5 5 4 2 -2 -6 -8 -2 -2 -1 -1 -2 -4 -3
-3 -2 -1 -2 -2 -2 -2 -2 -3 -2 -1 -2 -3 -3 -3 -15 -18 -1 0 1 1 0 1 -0 -2 -2 -2 -3 -3 -4 -6 0 1 4 6 6 3 -1 -1 -5 -7 -2 -0 -0 -1 -3 -5
-2 -2 -3 -2 -1 -3 -2 -3 -2 -4 -2 -2 -3 -2 -3 -12 -9 -1 -1 1 0 0 3 -0 -3 -5 -4 -4 -4 -5 -6 -7 0 1 5 6 3 2 2 4 -3 -5 -6 -4 -4 -3 -1
-2 -3 -2 -4 -2 -2 -3 -3 -3 -4 -4 -3 -2 -3 -3 -7 -7 -5 0 0 1 2 5 -2 -5 -4 -3 -4 -5 -7 -7 -7 -4 3 5 5 5 5 4 1 -0 2 -3 -2 -2 -0 -1
-3 -3 -2 -2 -4 -2 -2 -3 -4 -4 -4 -4 -3 -3 -3 -8 -1 -1 -0 0 1 4 4 -8 -5 -4 -3 -4 -4 -5 -7 -7 -7 -5 2 2 2 5 5 3 2 0 2 0 -0 0 4
-5 -5 -5 -4 -3 -4 -4 -3 -4 -4 -4 -4 -3 -3 -4 -4 -11 -3 -1 -0 3 4 -5 -8 -7 -7 -8 -7 -3 -4 -3 -6 -6 -5 -4 -2 1 -0 3 4 2 1 4 5 5 5 5
-4 -5 -5 -4 -4 -4 -5 -5 -5 -5 -3 -4 -5 -5 -4 -6 -10 -3 -1 1 3 -2 -2 -9 -8 -9 -7 -9 -6 -3 -2 -1 -6 -6 -3 -2 5 -1 -2 -2 4 2 2 6 7 7 4
-4 -4 -4 -4 -4 -4 -4 -6 -5 -4 -2 -4 -5 -5 -5 -6 -3 -2 0 1 -0 -5 -8 -6 -7 -7 -8 -12 -7 -5 -2 -1 -2 -4 -2 1 1 -2 -4 -2 -1 3 3 -1 4 6 7
-4 -3 -4 -3 -3 -4 -4 -6 -6 -4 -3 -4 -4 -5 -5 -6 -3 -1 1 -2 -3 -5 -5 -5 -5 -7 -8 -7 -6 -5 -0 2 4 -0 -5 -2 1 -2 -2 -2 -0 1 -1 5 7 9 10
-4 -5 -5 -4 -4 -6 -7 -6 -5 -5 -5 -4 -3 -2 -8 -4 -4 -1 0 -1 -5 -6 -6 -6 -6 -4 -5 -5 -6 -5 -0 2 0 0 -0 1 0 -1 -3 -1 1 2 4 7 7 6 7
-5 -5 -5 -5 -5 -6 -5 -6 -5 -5 -5 -4 -3 -2 -3 -2 -1 -0 -1 -3 -6 -5 -5 -4 -5 -5 -4 -4 -3 -3 -4 0 -4 -3 2 1 5 2 -2 -5 -4 -0 1 6 9 9 7
-5 -5 -6 -6 -6 -4 -5 -6 -7 -7 -4 -3 -2 -3 -8 -4 1 -1 -2 -4 -4 -4 -4 -4 -5 -6 -6 -5 -3 -5 -4 -2 -5 -3 0 -2 4 5 3 -0 -1 2 -1 3 4 5 9
-5 -5 -6 -6 -6 -6 -6 -7 -6 -6 -3 -2 -3 -2 -3 -4 -3 1 0 -1 -3 -5 -5 -5 -6 -7 -5 -4 -5 -4 -3 -4 -3 -2 -3 -3 3 6 7 5 6 7 4 -0 2 7 7
-6 -6 -7 -7 -7 -7 -8 -7 -6 -4 -4 -3 -3 -2 -4 -0 -2 -2 -2 -2 -2 1 -4 -6 -7 -6 -4 -3 -4 -3 -4 -4 -5 -3 -0 3 5 5 4 3 4 5 5 3 4 4 9
-6 -6 -8 -7 -6 -7 -7 -5 -5 -4 -4 -3 -3 -3 -5 -3 -5 -1 0 -1 -2 -4 0 -1 -1 -5 -6 -4 -3 -1 1 1 2 0 1 2 4 4 4 3 2 4 4 2 5 6 5
-6 -7 -6 -7 -7 -8 -8 -7 -6 -5 -5 -3 -3 -3 -3 -3 -3 -2 -2 -1 -1 -3 -5 -1 -1 1 0 1 0 -0 -1 0 0 1 2 4 4 5 6 2 5 4 1 5 6 6 5
-6 -7 -7 -8 -8 -8 -7 -8 -8 -7 -4 -4 -4 -4 -3 -3 -4 -5 -6 -6 -4 -0 0 -2 -4 -0 -0 -0 -1 -1 -1 -1 1 1 -0 1 1 4 5 3 7 3 1 2 3 4 2
-8 -7 -8 -7 -6 -7 -7 -6 -7 -8 -6 -3 -3 -3 -2 -4 -5 -6 -6 -7 -5 -1 1 -0 -2 -0 -1 -0 0 0 -1 -1 -1 -2 -2 -1 1 3 5 5 3 2 1 -4 0 -0 -2
-6 -7 -8 -7 -8 -7 -6 -6 -6 -6 -7 -4 -4 -3 -2 -3 -5 -5 -4 -7 -1 -1 0 0 -0 -0 0 1 1 1 1 -1 -2 -1 -3 -2 -0 2 4 5 6 3 -1 -4 -4 5 2
-9 -7 -6 -5 -4 -4 -4 -5 -6 -6 -7 -5 -4 -4 -3 -3 -5 -7 -3 -1 -1 -1 1 -1 -1 1 -1 0 0 2 1 -2 0 1 1 1 1 2 2 4 4 0 -3 -4 1 6 2
-6 -5 -5 -5 -5 -4 -3 -3 -3 -4 -6 -6 -4 -4 -3 -3 -3 -4 -6 -2 -3 -2 1 -0 0 1 0 -0 -0 -0 0 0 0 0 4 3 2 3 2 3 3 -4 0 1 4 2 2
-4 -3 -3 -3 -3 -3 -3 -2 -2 -3 -6 -6 -3 -4 -3 -3 -3 -3 -3 -4 -4 -4 -4 -1 -1 0 0 1 -0 1 0 1 2 3 3 5 3 2 1 1 1 3 3 3 2 1 1

GFSGBSN_850_dewp_069.txt.gz
Dewpoint
-4 -4 -4 -4 -3 -1 -1 -1 -1 -2 -4 -5 -6 0 -3 -7 -12 -21 -25 -27 -27 -26 -24 -19 -10 -8 -2 -4 -18 -28 -7 -7 -7 -6 -6 -4 2 -1 -6 -6 -2 1 -0 -1 -1 -1 -2
-2 -0 0 -1 1 1 1 0 -0 -1 -2 -2 -2 -4 -5 -8 -15 -21 -25 -27 -28 -27 -17 -3 -1 -4 2 1 -24 -12 -16 -12 -6 -6 -6 -6 -5 -6 -5 -3 -2 -2 -2 -1 -1 -1 -2
-1 0 1 1 1 -0 -1 -1 0 -0 -1 -3 -3 -1 -2 -5 -14 -23 -25 -28 -28 -22 -5 -3 -1 -3 3 -5 -14 -21 -13 -9 -7 -6 -6 -5 -7 -8 -9 -5 -3 -2 -1 -3 -3 -4 -5
-1 0 1 1 1 -0 0 -0 -0 -1 -1 -2 -3 -5 -6 -9 -16 -23 -26 -28 -27 -17 -14 -5 -2 -2 2 -10 -10 -6 -6 -14 -10 -7 -6 -6 -6 -6 -9 -8 -3 -1 -2 0 -3 -5 -5
0 0 -0 -0 0 0 0 0 0 -0 -0 0 -1 -2 -4 -10 -20 -24 -25 -19 -14 -7 -2 -2 -0 1 0 -4 -5 -5 -5 -4 -8 -10 -7 -7 -4 -5 -8 -5 -0 -0 2 0 -1 -5 -6
-0 -1 -2 -2 -1 -1 -2 -2 -1 -2 -3 -2 -1 -2 -5 -12 -19 -22 -9 -14 -6 1 1 2 4 3 -3 -3 -3 -5 -5 -5 -3 -6 -6 -4 -3 -6 -8 -2 1 2 2 -0 -1 -3 -3
-0 -0 -1 -2 -2 -3 -2 -3 -3 -3 -4 -4 -3 -4 -5 -12 -17 -14 -3 -8 -2 0 -1 -1 -0 2 -1 -1 -2 -3 -5 -3 -3 -2 1 1 0 1 -4 -4 -2 -0 0 0 -1 -2 -2
-2 -2 -1 -1 -1 -1 -2 -1 -3 -2 -3 -4 -5 -5 -6 -13 -16 -9 -0 1 -0 0 2 -1 -4 -4 -3 -1 0 -7 -5 -4 1 2 4 4 3 0 -2 -4 -5 -5 -2 0 -1 -2 -2
-1 -1 -1 -1 -3 -3 -1 -1 -3 -3 -3 -4 -5 -6 -5 -12 -18 -6 -2 0 -0 1 2 -2 -4 -2 -2 -2 -1 -4 -8 -5 2 4 5 4 3 2 1 -0 -0 -2 -3 -1 0 -2 -2
-2 -2 -3 -2 -3 -2 -3 -3 -2 -2 -3 -4 -5 -5 -4 -11 -7 -13 -1 -0 -2 1 2 -2 -1 -2 -2 -2 -2 -9 -5 -2 1 3 4 5 4 4 5 4 2 2 -3 -1 -5 -3 2
-2 -3 -4 -3 -2 -3 -3 -4 -3 -2 -3 -5 -5 -5 -5 -6 -6 -9 -6 -5 -4 2 -1 -8 -2 -4 -3 -4 -5 -4 -5 -4 2 3 4 3 5 6 5 4 2 2 4 4 3 3 2
-2 -3 -4 -4 -5 -4 -4 -4 -4 -5 -6 -5 -6 -4 -5 -6 -8 -7 -8 -5 -1 2 -2 -5 -3 -2 -2 -3 -4 -6 -5 -6 -6 -2 3 2 3 3 3 3 2 2 4 4 4 3 5
-3 -4 -5 -5 -6 -7 -6 -5 -5 -7 -7 -7 -6 -4 -4 -6 -7 -8 -9 -3 -0 3 -8 -3 -4 -4 -1 -1 -2 -5 -5 -5 -4 -3 -3 -4 -1 2 3 4 3 4 7 7 6 6 5
-4 -4 -4 -3 -4 -3 -4 -5 -5 -4 -7 -7 -6 -5 -6 -7 -7 -7 -5 -0 -0 -8 -3 -5 -5 -5 -1 -2 -2 -3 -4 -4 -6 -7 -4 -2 -3 1 3 3 4 3 7 8 8 8 7
-4 -5 -5 -5 -4 -5 -4 -4 -5 -5 -6 -7 -5 -5 -8 -8 -8 -5 -1 -0 -6 -5 -5 -4 -5 -3 -4 -5 -5 -1 -2 -3 -5 -7 -4 -2 0 -3 3 2 4 7 7 6 8 8 8
-8 -5 -4 -5 -4 -5 -4 -4 -5 -8 -8 -5 -4 -6 -9 -6 -6 -3 -3 -4 -3 -6 -7 -7 -2 -2 -2 -3 -3 -4 -1 0 3 -4 -6 -3 1 -3 -1 2 3 6 6 8 9 10 9
-5 -6 -7 -5 -6 -6 -7 -7 -7 -6 -7 -4 -5 -6 -7 -3 -5 -3 -3 -4 -4 -7 -6 -5 -2 -2 -3 -2 -4 -3 0 3 3 2 -3 1 -0 -1 -1 3 5 7 8 7 8 8 9
-3 -5 -6 -5 -5 -6 -5 -6 -5 -6 -7 -5 -4 -6 -6 -6 -2 -2 -3 -4 -5 -5 -6 -5 -4 -2 -2 -3 -2 -4 -2 0 -3 -1 3 0 4 6 4 -1 1 4 6 7 9 9 8
-4 -5 -6 -6 -5 -7 -7 -7 -7 -5 -5 -5 -3 -3 -7 -6 -6 -1 -3 -3 -4 -4 -5 -4 -4 -4 -3 -3 -0 -3 -4 -2 -3 -1 -2 -2 3 6 3 1 3 5 6 6 7 7 8
-4 -6 -6 -7 -7 -8 -8 -7 -6 -6 -6 -3 -4 -5 -7 -3 -4 -3 -3 -2 -3 -2 -2 -2 -3 -4 -3 -2 -3 -1 -2 -3 -3 -2 -2 -2 2 4 5 6 5 7 5 6 7 9 8
-5 -5 -7 -7 -8 -8 -8 -8 -8 -8 -6 -4 -3 -4 -4 -7 -2 -4 -4 -3 -1 -1 -2 -2 -2 -1 1 1 -2 -1 -2 -1 0 1 1 -1 1 4 3 3 3 4 5 6 8 7 9
-5 -8 -6 -6 -9 -9 -9 -7 -6 -7 -6 -3 -3 -4 -3 -3 -4 -3 -3 -2 -4 -3 -6 -0 -1 -0 -0 2 0 2 -1 -1 0 1 2 2 2 3 3 3 1 0 0 4 6 6 7
-5 -6 -6 -7 -7 -7 -7 -6 -8 -9 -4 -3 -3 -3 -4 -5 -5 -5 -6 -6 -3 -5 -6 -5 -3 0 1 -0 -0 1 1 0 0 -0 1 2 3 3 3 2 1 3 3 1 5 5 5
-6 -5 -6 -7 -8 -8 -8 -8 -9 -8 -6 -4 -3 -4 -4 -5 -5 -5 -7 -7 -5 -5 -4 -4 -4 0 -0 -2 -0 -1 -0 1 0 0 -0 1 1 2 3 2 2 -2 -5 1 3 5 5
-6 -8 -9 -9 -10 -9 -7 -9 -9 -9 -6 -6 -4 -3 -4 -5 -5 -4 -4 -5 -5 -5 -3 -3 -2 -0 1 1 1 -0 -0 -1 -1 0 1 -0 0 1 1 3 -0 -2 1 2 3 4 4
-7 -6 -6 -6 -6 -6 -6 -7 -6 -7 -6 -5 -6 -4 -3 -4 -5 -6 -6 -5 -2 -2 -2 -2 -2 -1 1 0 1 1 0 -2 -1 -2 -1 1 -1 0 2 2 2 -2 -0 -1 1 6 4
-5 -6 -8 -10 -10 -9 -12 -10 -7 -7 -6 -4 -5 -6 -4 -3 -4 -5 -5 -5 -5 -2 -2 -2 -2 -1 0 -0 1 1 1 -2 -1 -0 0 1 1 3 2 2 1 -1 2 0 5 6 3
-6 -9 -7 -8 -6 -6 -6 -6 -5 -5 -5 -5 -5 -5 -5 -3 -5 -5 -4 -5 -4 -3 -3 -3 -3 -2 -1 -1 0 0 -0 -1 -1 -2 -0 1 2 2 2 2 2 1 3 2 4 3 2
-8 -6 -9 -8 -6 -5 -4 -5 -5 -5 -5 -3 -3 -5 -4 -4 -5 -5 -4 -5 -6 -5 -4 -3 -2 -1 -1 1 0 -0 -0 -2 -0 1 3 1 3 2 1 1 1 0 1 3 3 3 3